User: anonymous   Login
Location: Unspecified
(0.0000°N, 0.0000°E)
Time: 02:56:18
(UTC+00:00)
Language:

TBA - TO BE ASSIGNED - Orbit

View from above orbital plane
View from above orbital plane
View from above satellite
View from above satellite

Ground track
Ground track

The orbit is defined by the following mean orbital elements,

1 67348U          26145.33344903 +.00000000 +00000-0 +69461-3 0 00007
2 67348  43.0025 154.3899 0001596 265.9313  94.1357 15.27569661    00
Epoch (UTC): 25 May 2026 08:00:09
Eccentricity: 0.0001596
inclination: 43.0025°
perigee height: 482 km
apogee height: 484 km
right ascension of ascending node: 154.3899°
argument of perigee: 265.9313°
revolutions per day: 15.27569661
mean anomaly at epoch: 94.1357°

The dashed part of the orbit path shows where the satellite is in the earth's shadow,  

DLR